Portada
METAR-TAF:

METAR-TAF

Aeroports :

Belmar-Farmingdale, Nova Jersey, Estats Units d'Amèrica

latitud: 40-11N, longitud: 074-08W, altitud: 48 m

Observació

L'informe es va fer fa 23 minuts, a les 14:56 UTC
Vent 9 kt del Sud-Oest
Temperatura 12°C
Humitat 58%
Pressió 1009 hPa
Visibilitat: 16.1 km
Escasses núvols a una alçada de 7000 ft

METAR: KBLM 221456Z AUTO 23009KT 10SM FEW070 12/04 A2980 RMK AO2 SLP091 T01170044 56021

Hora: 10:19 (15:19 UTC)


TAF: manca

Observacions i pronòstics meteorològics de més de 4000 aeroports (METAR i TAF).

Les estacions disponibles són els punts grocs i vermells al mapa.

Posi el ratolí al punt desitjat per veure el nom de l'estació.

Feu clic per veure les observacions i els pronòstics meteorològics.

Per canviar el mapa: feu clic els botons verds amb una creu de color negre per apropar; al botó verd amb un guió per allunyar la imatge; o en les fletxes verdes per a mapes adjacents.


METAR-TAF: